Time,TemperatureF,DewpointF,PressureIn,WindDirection,WindDirectionDegrees,WindSpeedMPH,WindSpeedGustMPH,Humidity,HourlyPrecipIn,Conditions,Clouds,dailyrainin,SoftwareType,DateUTC
2013-01-07 00:02:00,44.0,41.0,30.28,NE,47,3.0,4.0,90,0.00,,,0.00,weatherlink.com 1.10,2013-01-07 06:02:00,
2013-01-07 00:17:00,43.8,41.0,30.28,NE,46,0.0,3.0,90,0.00,,,0.00,weatherlink.com 1.10,2013-01-07 06:17:00,
2013-01-07 00:32:00,43.1,40.0,30.28,NE,46,0.0,2.0,90,0.00,,,0.00,weatherlink.com 1.10,2013-01-07 06:32:00,
2013-01-07 00:47:00,42.4,40.0,30.27,NE,46,0.0,0.0,90,0.00,,,0.00,weatherlink.com 1.10,2013-01-07 06:47:00,
2013-01-07 01:02:00,41.4,39.0,30.27,NE,46,0.0,0.0,91,0.00,,,0.00,weatherlink.com 1.10,2013-01-07 07:02:00,
2013-01-07 01:17:00,40.8,39.0,30.27,NE,46,0.0,1.0,93,0.00,,,0.00,weatherlink.com 1.10,2013-01-07 07:17:00,
2013-01-07 01:32:00,40.6,39.0,30.27,NE,46,0.0,1.0,94,0.00,,,0.00,weatherlink.com 1.10,2013-01-07 07:32:00,
2013-01-07 01:47:00,40.7,39.0,30.27,NE,46,2.0,2.0,95,0.00,,,0.00,weatherlink.com 1.10,2013-01-07 07:47:00,
2013-01-07 02:02:00,40.7,39.0,30.27,NE,46,0.0,2.0,95,0.00,,,0.00,weatherlink.com 1.10,2013-01-07 08:02:00,
2013-01-07 02:17:00,40.5,39.0,30.27,NE,46,0.0,1.0,94,0.00,,,0.00,weatherlink.com 1.10,2013-01-07 08:17:00,
2013-01-07 02:32:00,40.5,39.0,30.26,NE,46,1.0,3.0,95,0.00,,,0.00,weatherlink.com 1.10,2013-01-07 08:32:00,
2013-01-07 02:48:00,40.4,39.0,30.26,NE,45,2.0,3.0,95,0.00,,,0.00,weatherlink.com 1.10,2013-01-07 08:48:00,
2013-01-07 03:03:00,40.3,39.0,30.27,NE,45,1.0,3.0,95,0.00,,,0.00,weatherlink.com 1.10,2013-01-07 09:03:00,
2013-01-07 03:18:00,40.2,39.0,30.26,NE,46,0.0,2.0,95,0.00,,,0.00,weatherlink.com 1.10,2013-01-07 09:18:00,
2013-01-07 03:33:00,40.1,39.0,30.26,NE,42,2.0,4.0,95,0.00,,,0.00,weatherlink.com 1.10,2013-01-07 09:33:00,
2013-01-07 03:48:00,40.1,39.0,30.26,NE,52,0.0,3.0,95,0.00,,,0.00,weatherlink.com 1.10,2013-01-07 09:48:00,
2013-01-07 04:03:00,39.9,39.0,30.25,NE,46,0.0,3.0,95,0.00,,,0.00,weatherlink.com 1.10,2013-01-07 10:03:00,
2013-01-07 04:18:00,39.8,39.0,30.24,NE,48,3.0,4.0,96,0.00,,,0.00,weatherlink.com 1.10,2013-01-07 10:18:00,
2013-01-07 04:33:00,39.9,39.0,30.24,NE,44,3.0,4.0,95,0.00,,,0.00,weatherlink.com 1.10,2013-01-07 10:33:00,
2013-01-07 04:48:00,39.9,39.0,30.24,NE,46,1.0,4.0,96,0.00,,,0.00,weatherlink.com 1.10,2013-01-07 10:48:00,
2013-01-07 05:03:00,40.0,39.0,30.24,NE,34,2.0,5.0,95,0.00,,,0.00,weatherlink.com 1.10,2013-01-07 11:03:00,
2013-01-07 05:18:00,40.0,39.0,30.25,NE,46,1.0,5.0,95,0.00,,,0.00,weatherlink.com 1.10,2013-01-07 11:18:00,
2013-01-07 05:33:00,39.9,39.0,30.25,NE,47,2.0,4.0,95,0.00,,,0.00,weatherlink.com 1.10,2013-01-07 11:33:00,
2013-01-07 05:48:00,39.6,38.0,30.25,NE,44,0.0,3.0,95,0.00,,,0.00,weatherlink.com 1.10,2013-01-07 11:48:00,
2013-01-07 06:03:00,39.3,38.0,30.26,NE,44,1.0,3.0,95,0.00,,,0.00,weatherlink.com 1.10,2013-01-07 12:03:00,
2013-01-07 06:18:00,39.1,38.0,30.26,NE,41,2.0,3.0,95,0.00,,,0.00,weatherlink.com 1.10,2013-01-07 12:18:00,
2013-01-07 06:33:00,39.0,38.0,30.26,NE,44,2.0,4.0,96,0.00,,,0.00,weatherlink.com 1.10,2013-01-07 12:33:00,
2013-01-07 06:48:00,38.8,38.0,30.27,NE,44,1.0,3.0,96,0.00,,,0.00,weatherlink.com 1.10,2013-01-07 12:48:00,
2013-01-07 07:03:00,38.7,38.0,30.27,NE,36,2.0,4.0,96,0.00,,,0.00,weatherlink.com 1.10,2013-01-07 13:03:00,
2013-01-07 07:18:00,38.9,38.0,30.27,NE,53,1.0,4.0,96,0.00,,,0.00,weatherlink.com 1.10,2013-01-07 13:18:00,
2013-01-07 07:33:00,39.7,39.0,30.27,ENE,58,2.0,5.0,96,0.00,,,0.00,weatherlink.com 1.10,2013-01-07 13:33:00,
2013-01-07 07:48:00,41.1,40.0,30.28,ENE,61,2.0,5.0,95,0.00,,,0.00,weatherlink.com 1.10,2013-01-07 13:48:00,
2013-01-07 08:03:00,42.3,40.0,30.28,NE,35,2.0,6.0,92,0.00,,,0.00,weatherlink.com 1.10,2013-01-07 14:03:00,
2013-01-07 08:18:00,43.8,41.0,30.28,NE,42,5.0,7.0,91,0.00,,,0.00,weatherlink.com 1.10,2013-01-07 14:18:00,
2013-01-07 08:33:00,45.2,42.0,30.29,NNE,33,4.0,7.0,88,0.00,,,0.00,weatherlink.com 1.10,2013-01-07 14:33:00,
2013-01-07 08:48:00,46.6,42.0,30.29,ENE,74,5.0,11.0,85,0.00,,,0.00,weatherlink.com 1.10,2013-01-07 14:48:00,
2013-01-07 09:03:00,47.6,43.0,30.29,NNE,21,5.0,9.0,84,0.00,,,0.00,weatherlink.com 1.10,2013-01-07 15:03:00,
2013-01-07 09:18:00,48.5,44.0,30.30,ENE,71,2.0,8.0,83,0.00,,,0.00,weatherlink.com 1.10,2013-01-07 15:18:00,
2013-01-07 09:33:00,50.0,44.0,30.30,NE,55,2.0,10.0,79,0.00,,,0.00,weatherlink.com 1.10,2013-01-07 15:33:00,
2013-01-07 09:48:00,50.5,44.0,30.30,ENE,77,3.0,11.0,77,0.00,,,0.00,weatherlink.com 1.10,2013-01-07 15:48:00,
2013-01-07 10:03:00,51.4,44.0,30.29,East,94,3.0,9.0,77,0.00,,,0.00,weatherlink.com 1.10,2013-01-07 16:03:00,
2013-01-07 10:18:00,52.7,44.0,30.29,ENE,60,9.0,10.0,73,0.00,,,0.00,weatherlink.com 1.10,2013-01-07 16:18:00,
2013-01-07 10:34:00,54.1,45.0,30.29,East,84,7.0,9.0,70,0.00,,,0.00,weatherlink.com 1.10,2013-01-07 16:34:00,
2013-01-07 10:49:00,54.6,45.0,30.29,East,88,6.0,9.0,69,0.00,,,0.00,weatherlink.com 1.10,2013-01-07 16:49:00,
2013-01-07 11:04:00,54.6,44.0,30.27,East,83,3.0,9.0,68,0.00,,,0.00,weatherlink.com 1.10,2013-01-07 17:04:00,
2013-01-07 11:19:00,56.7,45.0,30.26,ENE,68,2.0,8.0,64,0.00,,,0.00,weatherlink.com 1.10,2013-01-07 17:19:00,
2013-01-07 11:34:00,56.9,44.0,30.25,NE,46,5.0,9.0,63,0.00,,,0.00,weatherlink.com 1.10,2013-01-07 17:34:00,
2013-01-07 11:49:00,57.8,45.0,30.25,East,83,2.0,8.0,62,0.00,,,0.00,weatherlink.com 1.10,2013-01-07 17:49:00,
2013-01-07 12:04:00,58.2,46.0,30.24,ENE,72,4.0,7.0,65,0.00,,,0.00,weatherlink.com 1.10,2013-01-07 18:04:00,
2013-01-07 12:19:00,58.7,45.0,30.22,East,80,3.0,9.0,60,0.00,,,0.00,weatherlink.com 1.10,2013-01-07 18:19:00,
2013-01-07 12:34:00,60.8,47.0,30.22,ENE,69,3.0,7.0,61,0.00,,,0.00,weatherlink.com 1.10,2013-01-07 18:34:00,
2013-01-07 12:49:00,60.7,45.0,30.21,ENE,71,3.0,8.0,56,0.00,,,0.00,weatherlink.com 1.10,2013-01-07 18:49:00,
2013-01-07 13:04:00,59.4,45.0,30.20,NNE,12,4.0,5.0,59,0.00,,,0.00,weatherlink.com 1.10,2013-01-07 19:04:00,
2013-01-07 13:19:00,61.2,46.0,30.20,NNE,19,1.0,8.0,58,0.00,,,0.00,weatherlink.com 1.10,2013-01-07 19:19:00,
2013-01-07 13:34:00,62.3,46.0,30.19,NNE,25,4.0,6.0,55,0.00,,,0.00,weatherlink.com 1.10,2013-01-07 19:34:00,
2013-01-07 13:49:00,59.6,44.0,30.19,East,87,2.0,5.0,56,0.00,,,0.00,weatherlink.com 1.10,2013-01-07 19:49:00,
2013-01-07 14:04:00,58.5,44.0,30.19,NNE,33,2.0,6.0,58,0.00,,,0.00,weatherlink.com 1.10,2013-01-07 20:04:00,
2013-01-07 14:19:00,58.4,43.0,30.20,NE,44,1.0,5.0,58,0.00,,,0.00,weatherlink.com 1.10,2013-01-07 20:19:00,
2013-01-07 14:34:00,58.7,44.0,30.19,ENE,65,1.0,7.0,59,0.00,,,0.00,weatherlink.com 1.10,2013-01-07 20:34:00,
2013-01-07 14:49:00,58.6,43.0,30.20,NE,43,2.0,4.0,57,0.00,,,0.00,weatherlink.com 1.10,2013-01-07 20:49:00,
2013-01-07 15:04:00,58.7,43.0,30.19,NE,45,2.0,5.0,57,0.00,,,0.00,weatherlink.com 1.10,2013-01-07 21:04:00,
2013-01-07 15:19:00,58.5,44.0,30.18,ENE,69,2.0,4.0,58,0.00,,,0.00,weatherlink.com 1.10,2013-01-07 21:19:00,
2013-01-07 15:34:00,58.2,44.0,30.18,ENE,68,2.0,5.0,59,0.00,,,0.00,weatherlink.com 1.10,2013-01-07 21:34:00,
2013-01-07 15:49:00,58.2,43.0,30.17,NE,34,3.0,7.0,58,0.00,,,0.00,weatherlink.com 1.10,2013-01-07 21:49:00,
2013-01-07 16:19:00,57.7,44.0,30.17,ENE,67,5.0,6.0,60,0.00,,,0.00,weatherlink.com 1.10,2013-01-07 22:19:00,
2013-01-07 16:34:00,57.2,44.0,30.17,NE,53,2.0,7.0,61,0.00,,,0.00,weatherlink.com 1.10,2013-01-07 22:34:00,
2013-01-07 16:49:00,57.0,43.0,30.16,NNE,27,2.0,5.0,61,0.00,,,0.00,weatherlink.com 1.10,2013-01-07 22:49:00,
2013-01-07 17:04:00,56.7,43.0,30.17,East,82,1.0,5.0,61,0.00,,,0.00,weatherlink.com 1.10,2013-01-07 23:04:00,
2013-01-07 17:19:00,56.0,43.0,30.17,East,82,0.0,2.0,63,0.00,,,0.00,weatherlink.com 1.10,2013-01-07 23:19:00,
2013-01-07 17:49:00,53.7,43.0,30.17,East,82,0.0,1.0,68,0.00,,,0.00,weatherlink.com 1.10,2013-01-07 23:49:00,
2013-01-07 18:19:00,51.6,44.0,30.18,East,82,0.0,0.0,76,0.00,,,0.00,weatherlink.com 1.10,2013-01-08 00:19:00,
2013-01-07 18:34:00,51.5,45.0,30.18,East,82,0.0,0.0,79,0.00,,,0.00,weatherlink.com 1.10,2013-01-08 00:34:00,
2013-01-07 18:49:00,51.8,46.0,30.17,East,82,0.0,0.0,79,0.00,,,0.00,weatherlink.com 1.10,2013-01-08 00:49:00,
2013-01-07 19:04:00,52.1,46.0,30.17,East,82,0.0,0.0,79,0.00,,,0.00,weatherlink.com 1.10,2013-01-08 01:04:00,
2013-01-07 19:19:00,52.3,46.0,30.17,East,82,1.0,1.0,80,0.00,,,0.00,weatherlink.com 1.10,2013-01-08 01:19:00,
2013-01-07 19:34:00,52.6,46.0,30.17,East,82,0.0,1.0,78,0.00,,,0.00,weatherlink.com 1.10,2013-01-08 01:34:00,
2013-01-07 19:49:00,52.8,46.0,30.17,East,82,0.0,0.0,77,0.00,,,0.00,weatherlink.com 1.10,2013-01-08 01:49:00,
2013-01-07 20:04:00,53.0,46.0,30.16,NE,40,4.0,4.0,76,0.00,,,0.00,weatherlink.com 1.10,2013-01-08 02:04:00,
2013-01-07 20:19:00,53.2,46.0,30.17,ENE,70,1.0,2.0,76,0.00,,,0.00,weatherlink.com 1.10,2013-01-08 02:19:00,
2013-01-07 20:34:00,53.4,46.0,30.16,East,86,1.0,3.0,75,0.00,,,0.00,weatherlink.com 1.10,2013-01-08 02:34:00,
2013-01-07 20:49:00,54.1,45.0,30.16,East,90,5.0,6.0,72,0.00,,,0.00,weatherlink.com 1.10,2013-01-08 02:49:00,
2013-01-07 21:04:00,53.9,45.0,30.15,East,80,2.0,5.0,73,0.00,,,0.00,weatherlink.com 1.10,2013-01-08 03:04:00,
2013-01-07 21:19:00,53.7,45.0,30.16,ENE,74,1.0,6.0,73,0.00,,,0.00,weatherlink.com 1.10,2013-01-08 03:19:00,
2013-01-07 21:34:00,53.3,45.0,30.15,ENE,74,3.0,5.0,73,0.00,,,0.00,weatherlink.com 1.10,2013-01-08 03:34:00,
2013-01-07 21:49:00,53.6,44.0,30.14,East,89,3.0,5.0,71,0.00,,,0.00,weatherlink.com 1.10,2013-01-08 03:49:00,
2013-01-07 22:04:00,53.5,44.0,30.13,ENE,74,5.0,8.0,70,0.00,,,0.00,weatherlink.com 1.10,2013-01-08 04:04:00,
2013-01-07 22:19:00,53.6,44.0,30.13,ENE,67,5.0,9.0,69,0.00,,,0.00,weatherlink.com 1.10,2013-01-08 04:19:00,
2013-01-07 22:35:00,53.4,43.0,30.12,East,80,2.0,8.0,69,0.00,,,0.00,weatherlink.com 1.10,2013-01-08 04:35:00,
2013-01-07 22:50:00,53.1,44.0,30.13,East,96,5.0,7.0,70,0.00,,,0.00,weatherlink.com 1.10,2013-01-08 04:50:00,
2013-01-07 23:05:00,53.3,44.0,30.12,East,82,3.0,8.0,70,0.00,,,0.00,weatherlink.com 1.10,2013-01-08 05:05:00,
2013-01-07 23:20:00,53.2,44.0,30.12,East,79,3.0,7.0,71,0.00,,,0.00,weatherlink.com 1.10,2013-01-08 05:20:00,
2013-01-07 23:35:00,53.1,45.0,30.13,ENE,72,2.0,7.0,73,0.00,,,0.00,weatherlink.com 1.10,2013-01-08 05:35:00,
2013-01-07 23:50:00,52.9,45.0,30.13,East,90,3.0,5.0,75,0.00,,,0.00,weatherlink.com 1.10,2013-01-08 05:50:00,